Theta_e
313 314 313 313 313 311 310 310 310 311 312 313 314 312 312 313 314 314 315 334 336 334 333 333 334 334 335 337 339 339 339 339 341 342 343 345 345 346 346 346 346 346 349
313 312 312 312 312 311 310 309 309 309 310 311 312 311 312 313 315 318 320 324 334 332 332 331 331 331 332 335 334 336 337 337 337 339 340 342 344 344 346 345 346 345 347
313 312 310 312 311 311 309 309 309 308 308 310 309 310 311 315 317 319 321 321 323 331 331 331 330 330 330 330 331 332 333 334 335 335 336 339 342 343 344 344 345 346 346
314 312 310 310 311 309 308 307 307 306 306 306 306 308 309 314 315 317 318 319 321 321 324 330 329 329 329 329 328 328 329 330 331 331 332 333 335 338 341 342 344 346 346
315 311 310 311 309 308 306 306 306 304 303 304 307 308 308 310 312 316 315 316 316 317 318 325 328 328 328 329 328 329 331 330 330 329 329 331 333 335 337 339 342 344 346
315 311 310 310 308 306 306 305 304 305 304 303 308 308 307 308 309 310 311 314 314 315 316 317 316 318 327 328 327 327 327 329 330 329 327 327 330 332 335 336 340 341 342
314 312 310 310 308 306 304 305 304 303 303 304 303 304 304 306 306 308 308 309 309 312 314 315 316 315 316 325 326 326 326 327 329 327 327 325 325 327 332 334 337 339 340
314 313 310 309 307 305 305 305 303 302 302 303 300 298 298 302 304 308 307 308 308 309 312 314 315 315 314 314 319 325 324 325 326 325 325 326 325 325 328 331 334 335 336
315 312 311 309 307 305 305 304 304 303 301 302 303 301 296 295 301 305 306 306 306 307 308 311 314 315 314 313 318 323 323 320 321 322 322 322 323 326 325 327 328 330 330
314 313 312 310 308 306 305 305 308 303 301 301 302 305 304 304 298 297 302 304 306 307 307 307 310 312 314 313 319 323 324 321 319 320 321 320 319 323 326 325 325 326 328
313 314 312 310 308 307 307 306 306 303 302 301 301 301 300 300 302 299 296 301 303 306 306 307 308 309 311 313 313 317 322 323 321 320 321 322 320 320 322 323 323 323 324
310 312 313 310 309 308 308 308 307 305 304 303 302 302 301 299 299 298 296 297 298 302 305 307 308 309 309 311 318 323 322 320 320 320 319 319 320 321 319 322 322 322 322
310 311 311 310 309 310 310 308 308 307 305 304 304 304 302 301 301 300 298 297 297 300 302 305 307 308 311 310 312 321 322 320 319 318 317 317 318 319 319 318 320 321 321
311 312 311 310 311 311 311 309 308 307 306 306 306 304 304 304 302 301 300 298 296 296 298 302 305 307 308 309 313 322 315 320 320 318 317 316 316 317 317 318 320 319 318
312 312 313 312 312 311 311 309 309 308 307 307 307 307 304 305 304 302 301 301 300 294 295 300 301 305 306 308 311 312 311 316 319 320 318 316 316 317 317 317 318 318 318
312 312 313 312 313 312 311 310 309 308 307 308 307 306 306 305 305 304 302 302 300 299 296 299 301 303 305 308 311 313 312 318 319 320 320 318 317 317 316 316 317 317 317
313 313 314 313 313 313 313 311 309 309 309 309 308 307 308 307 307 305 303 302 301 300 298 300 300 302 303 303 306 306 310 308 309 318 320 319 317 317 316 316 316 316 316
313 313 313 313 314 314 313 312 311 311 311 310 311 309 308 311 307 308 306 304 303 302 300 298 299 300 301 302 303 304 309 310 308 314 318 318 317 316 316 315 314 314 314
314 314 314 313 314 314 313 313 313 313 313 312 312 311 311 311 309 310 308 306 305 305 301 299 300 299 300 301 301 302 303 304 308 315 317 317 317 316 316 315 313 312 311
314 314 313 313 314 314 315 315 316 316 315 316 315 313 314 314 313 312 310 310 309 306 301 300 300 298 299 301 299 299 300 299 301 305 310 313 313 314 315 315 315 314 311
316 315 314 314 315 314 316 316 316 317 317 316 315 316 317 317 318 316 314 312 310 307 305 303 301 297 298 298 298 299 298 298 299 300 300 301 302 303 305 313 316 317 313
314 313 314 314 314 317 314 312 313 314 315 315 316 316 316 318 318 317 317 316 316 309 307 306 304 301 301 299 299 299 298 297 297 299 298 299 301 301 302 303 308 311 311
311 311 312 313 314 315 310 308 309 311 311 313 314 317 316 318 317 318 315 314 314 313 313 312 306 305 303 301 300 299 299 298 297 299 299 298 298 299 301 303 308 307 307
310 311 313 314 313 316 309 306 306 308 309 311 312 312 313 314 315 314 314 313 314 314 313 313 311 309 310 310 305 307 306 303 298 299 300 297 297 298 299 299 305 306 306
313 313 314 314 313 315 308 304 305 308 309 310 311 311 310 311 309 304 309 310 309 312 314 311 309 307 305 305 308 308 305 303 303 298 299 298 298 297 296 297 299 305 304
312 312 312 311 311 309 304 299 302 309 306 307 308 309 308 306 301 300 305 307 305 308 309 311 312 309 307 309 306 310 309 304 302 298 302 300 295 295 295 295 296 298 299
Wind_Speed
4 3 4 3 3 4 4 5 4 4 5 6 5 5 6 6 5 2 2 6 6 3 2 5 8 9 10 10 7 9 10 9 12 13 12 13 12 14 14 13 11 11 11
3 4 4 3 4 4 4 4 4 4 4 4 5 6 6 5 5 5 4 4 5 4 4 5 6 9 10 9 8 9 11 9 10 11 13 14 13 13 16 16 14 12 12
3 4 3 3 3 4 5 5 5 4 4 4 4 5 5 5 5 5 4 4 4 7 5 6 7 8 9 9 9 9 9 10 6 7 9 12 14 13 15 16 17 15 12
4 4 3 3 4 4 4 4 4 4 4 4 4 4 4 5 5 5 4 4 3 3 5 7 8 8 8 8 8 7 8 8 9 9 10 11 13 16 16 17 17 15 14
4 4 3 2 4 4 4 3 3 3 4 5 4 3 3 4 5 5 6 5 5 4 3 6 9 10 8 9 9 10 11 11 10 12 14 14 16 16 18 19 18 16 15
2 3 2 2 3 3 4 4 3 3 2 4 3 3 2 3 3 4 4 4 5 5 5 5 4 4 8 9 8 7 9 12 13 11 7 10 12 13 16 19 17 18 17
1 2 1 1 2 3 3 4 3 4 4 6 3 4 3 3 5 3 3 4 5 5 5 4 3 2 3 8 6 5 6 11 11 4 10 9 10 12 14 16 18 15 12
2 2 1 1 1 2 4 4 4 4 2 4 2 1 4 5 4 3 4 5 6 4 5 5 5 4 2 3 4 5 3 7 9 6 7 8 8 10 12 15 17 12 8
3 3 3 2 1 1 2 2 3 4 3 3 5 3 3 2 4 3 4 4 6 5 5 5 5 4 3 2 4 6 4 2 5 5 4 8 12 10 5 9 7 9 6
5 4 3 3 2 1 3 2 1 1 1 3 2 2 1 2 1 5 4 5 6 6 6 4 4 4 4 3 5 6 7 4 2 4 5 2 7 10 14 5 10 12 4
4 4 4 4 4 2 3 4 2 2 1 1 1 1 1 1 2 3 4 6 4 4 4 4 4 4 4 3 3 5 6 8 5 5 6 7 4 7 12 11 9 7 11
3 5 5 4 5 4 4 4 3 4 4 3 2 2 2 2 3 2 3 4 4 6 5 4 4 4 3 3 6 11 8 4 5 7 7 6 6 6 2 10 8 5 8
3 6 5 5 4 5 5 4 5 5 4 4 4 3 3 4 3 3 2 4 3 4 4 3 3 4 4 4 4 10 8 7 7 7 8 8 8 5 6 5 10 3 4
5 5 6 6 6 6 6 5 4 4 4 5 6 6 4 4 4 4 3 2 4 3 3 6 3 3 4 4 7 11 4 6 9 9 8 8 8 7 3 5 10 7 3
4 6 6 6 7 7 7 5 5 6 4 5 6 6 5 5 4 4 4 4 4 3 4 4 3 3 4 4 7 5 5 9 10 10 9 8 8 8 5 7 10 9 7
5 6 6 6 7 6 6 6 5 7 6 6 5 6 6 5 6 4 5 4 4 5 4 4 4 4 5 4 7 6 6 11 11 10 11 12 11 9 8 9 10 11 10
7 7 7 7 7 7 7 6 7 7 7 9 7 8 10 8 7 5 4 4 5 5 5 4 4 3 4 4 6 4 5 5 5 11 13 12 11 12 11 11 11 11 11
7 8 7 6 7 7 7 7 9 8 9 10 11 7 11 8 9 9 7 9 8 6 5 7 4 4 5 4 5 6 4 4 5 9 12 12 11 11 13 13 12 11 11
8 7 6 7 8 9 8 9 10 11 11 11 11 10 12 10 11 9 9 9 7 7 6 4 5 3 4 3 3 2 3 3 4 12 11 12 12 12 10 13 13 14 13
8 8 8 9 9 10 9 10 11 10 11 12 11 9 9 12 13 14 9 10 9 8 5 6 6 4 4 4 2 3 4 1 3 2 7 8 8 10 11 12 14 15 15
9 8 7 9 9 7 8 11 10 10 11 12 9 12 11 15 22 16 9 11 10 9 7 7 6 4 4 3 4 3 3 2 3 4 2 2 2 4 5 9 12 18 17
8 6 8 9 11 7 14 13 13 8 10 11 12 13 12 17 18 20 21 23 14 9 10 6 6 8 8 5 4 4 3 2 3 2 3 3 3 4 4 4 12 13 11
5 7 8 8 10 9 13 13 13 6 7 9 10 9 10 9 12 11 15 17 17 14 17 10 10 10 6 7 5 4 5 4 5 3 3 3 2 4 4 5 8 9 9
5 6 7 7 7 7 11 12 8 6 6 8 8 8 9 12 13 12 13 12 8 8 9 7 11 10 10 6 8 5 5 4 2 3 4 4 2 4 2 3 6 5 7
5 4 5 7 7 8 14 14 9 6 7 9 9 10 8 9 12 15 9 11 7 8 6 15 14 14 11 10 6 4 4 3 5 4 5 4 3 3 2 3 2 6 7
4 5 6 7 7 7 12 14 12 6 8 8 11 11 12 8 15 13 7 6 8 11 5 7 5 12 15 12 14 10 5 5 3 3 4 5 3 3 3 2 2 1 3
Wind_Direction
35 28 18 25 11 354 8 354 345 344 342 344 343 346 341 333 324 341 9 320 132 103 40 359 350 348 343 339 296 308 285 290 273 253 255 262 264 252 247 253 255 260 265
66 51 35 33 11 4 348 345 337 340 337 338 345 345 343 341 19 61 27 9 76 48 24 9 356 347 341 347 341 331 295 293 292 275 255 260 261 256 250 246 250 248 256
76 60 46 28 355 345 350 356 344 341 353 346 350 354 351 2 25 62 37 26 22 15 7 350 351 345 338 338 342 339 339 327 297 342 337 269 263 259 254 248 244 247 248
83 61 63 20 346 0 2 357 339 337 344 358 346 358 359 12 23 46 42 35 14 6 348 331 336 330 327 323 315 316 323 344 341 328 322 310 299 267 257 255 252 245 247
87 79 52 6 357 9 7 345 323 340 335 346 345 5 13 28 26 25 29 20 358 357 340 326 333 333 319 313 315 299 281 291 300 316 315 301 297 277 262 254 255 248 241
94 82 49 40 6 14 1 354 344 329 311 330 350 10 350 23 46 27 20 3 343 346 332 316 314 323 326 315 315 320 328 319 306 295 7 349 354 317 273 255 246 249 244
100 92 42 21 22 35 342 351 336 349 327 344 17 346 329 322 10 0 4 0 358 335 326 311 295 311 320 326 316 323 336 356 360 311 321 319 316 348 316 269 241 232 240
203 159 162 249 345 20 10 6 20 335 335 3 60 50 0 331 323 0 344 352 338 320 328 321 302 302 313 316 283 271 335 14 30 18 12 330 318 310 354 326 242 225 223
204 170 194 224 223 32 355 338 360 19 346 327 22 109 15 313 329 326 330 331 329 324 319 320 306 294 294 314 324 264 245 358 4 4 42 37 7 327 7 357 315 247 189
218 195 196 233 212 240 299 300 347 349 34 344 325 3 284 222 289 325 325 313 320 312 316 312 300 292 293 296 297 279 239 206 254 317 316 19 33 2 348 5 11 6 267
229 227 208 222 231 222 264 270 283 268 252 265 245 315 331 312 238 235 293 316 314 308 293 306 300 290 294 276 274 279 273 225 235 266 296 303 320 53 327 354 335 1 354
261 256 247 244 253 228 243 250 253 232 233 245 261 237 199 209 262 248 260 285 274 300 306 305 300 297 292 270 262 257 250 243 239 256 268 283 263 206 196 329 301 315 358
244 245 235 242 251 249 243 243 254 243 230 223 235 255 218 216 198 214 221 274 274 293 312 294 288 297 288 284 266 277 258 217 221 249 265 270 270 239 134 294 295 264 164
239 257 250 249 252 260 260 247 273 287 266 252 255 240 259 243 202 200 208 211 312 293 306 262 289 294 292 286 265 264 265 259 216 230 257 267 271 262 202 206 263 272 274
239 249 233 254 256 253 259 261 261 265 262 263 255 254 247 261 233 219 210 195 195 280 283 286 269 269 284 290 278 272 256 254 266 226 233 256 250 257 238 237 242 249 248
250 252 252 244 253 256 259 257 262 263 256 262 249 254 254 254 256 239 223 212 203 199 248 215 259 255 281 287 274 261 257 255 252 251 228 229 242 248 246 243 246 243 239
252 251 250 259 258 258 257 252 251 261 256 262 258 241 255 247 251 247 229 227 225 186 224 275 237 267 281 286 295 276 259 248 251 256 257 242 233 238 240 242 242 247 248
258 246 251 256 263 259 258 253 260 257 249 254 258 248 253 258 244 243 230 232 229 211 206 249 241 254 236 260 259 277 257 237 244 255 255 260 250 243 226 232 235 240 241
257 262 253 254 261 260 259 255 251 258 257 255 256 253 256 260 262 254 235 232 233 231 209 217 257 246 265 273 311 287 282 275 245 267 266 255 257 260 240 221 223 233 239
259 259 248 248 252 257 258 267 273 271 276 271 271 266 255 261 258 264 247 248 244 236 204 217 236 241 230 259 233 238 300 305 293 289 278 280 281 278 264 232 226 230 231
261 257 265 266 264 264 267 258 263 267 278 283 268 256 264 260 263 248 243 247 231 230 226 223 234 210 218 216 209 214 218 237 281 235 275 252 229 290 267 259 241 234 228
261 271 274 276 283 272 270 281 272 283 294 287 283 282 279 277 264 258 256 251 241 223 234 222 238 229 233 202 182 196 207 196 280 200 177 268 186 268 267 241 235 228 225
308 280 275 278 280 275 281 282 293 295 282 282 278 286 293 285 282 269 266 256 249 233 229 231 231 229 238 203 174 192 196 189 218 240 138 269 204 263 240 244 235 216 221
303 306 301 295 293 297 316 327 323 306 296 289 291 293 295 302 314 300 288 278 241 234 224 230 229 238 238 223 189 185 180 191 242 244 165 223 224 261 300 280 272 230 201
326 317 319 327 337 338 347 357 352 339 326 314 314 312 304 302 319 325 310 281 266 261 238 234 225 234 230 246 180 155 208 178 254 241 193 180 229 253 279 280 263 233 213
331 348 11 12 11 16 16 20 14 344 334 332 323 321 318 310 320 321 312 286 278 280 258 272 236 247 239 234 200 212 206 202 197 301 195 178 177 168 319 264 291 229 236